Regional Weather Roundup
Issued by NWS Green Bay, WI

Home | Current Version | Previous Version | Graphics & Text | Print | Product List | Glossary Off
Versions: 1 2 3 4 5 6 7 8 9 10 11 12 13 14 15 16 17 18 19 20 21 22 23 24 25 26 27 28 29 30 31 32 33 34 35 36 37 38 39 40 41 42 43 44 45 46 47 48 49 50

000
ASUS43 KGRB 072211
RWRGRB

NORTH-CENTRAL AND NORTHEAST WISCONSIN REGIONAL WEATHER ROUNDUP
NATIONAL WEATHER SERVICE GREEN BAY WI
400 PM CST WED DEC 07 2016

WIZ005-009-010>012-018-019-072300-
NORTH CENTRAL WISCONSIN

CITY           SKY/WX    TMP DP  RH WIND       PRES   REMARKS
IRONWOOD       NOT AVBL
MANITOWISH WTR FLURRIES  17  12  81 W10       29.81R WCI   5
ARBOR VITAE    FLURRIES  19  13  77 W14G24    29.82R WCI   6
EAGLE RIVER    FLURRIES  19  11  72 W16G23    29.80R WCI   4
LAND O LAKES   FLURRIES  19  12  76 W12G17    29.80S WCI   6
RHINELANDER    LGT SNOW  20  14  77 W16G23    29.83R WCI   6
PHILLIPS       FLURRIES  18  12  77 W10G18    29.86R WCI   6
ANTIGO         FLURRIES  17  12  79 W21G26    29.87R WCI   1
TOMAHAWK       FLURRIES  19  13  78 SW9       29.87R WCI   7
MERRILL        FLURRIES  19  14  79 W15G23    29.90R WCI   5
$$

WIZ013-073-072300-
NORTHEAST WISCONSIN

CITY           SKY/WX    TMP DP  RH WIND       PRES   REMARKS
IRON MOUNTAIN  NOT AVBL
MARINETTE      NOT AVBL
OCONTO         MOCLDY    24  13  61 W20G25    29.91R
$$

WIZ017-030-035>037-045-072300-
CENTRAL WISCONSIN

CITY           SKY/WX    TMP DP  RH WIND       PRES   REMARKS
MEDFORD        FLURRIES  18  11  75 W14G22    29.91R WCI   4
WAUSAU         FLURRIES  19  12  74 W22G30    29.92R WCI   2
MOSINEE        CLOUDY    19  12  73 W18G26    29.94R WCI   4
MARSHFIELD     CLOUDY    20  11  68 W16G28    29.95R WCI   6
WISC RAPIDS    CLOUDY    21  13  71 W14G25    29.99R WCI   8
STEVENS POINT  CLOUDY    20  11  69 W12G22    29.96R WCI   8
WAUPACA        CLOUDY    25  14  63 SW16G23   29.97R
SHAWANO        MOCLDY    25  14  63 W13G20    29.93R
CLINTONVILLE   CLOUDY    25  14  63 W13G21    29.94R
WAUTOMA        CLOUDY    22  14  71 W17G24    29.99R WCI   8
$$

WIZ038-039-048-051-072300-
FOX VALLEY

CITY           SKY/WX    TMP DP  RH WIND       PRES   REMARKS
NWS GREEN BAY  MOCLDY    27  16  63 W16G24    29.93R
APPLETON       MOCLDY    23  12  63 W22       29.94R WCI   8
OSHKOSH        MOCLDY    22  13  68 W9G18     29.97R
FOND DU LAC    MOCLDY    22  12  65 W8        30.00R
$$

WIZ022-050-052-072300-
EAST CENTRAL WISCONSIN

CITY           SKY/WX    TMP DP  RH WIND       PRES   REMARKS
EPHRAIM        CLOUDY    26  15  64 W7G20     29.86R
WASHINGTON ISL CLOUDY    26  15  62 W18G25    29.86R
STURGEON BAY   MOCLDY    26  15  63 W16G26    29.89S
MANITOWOC      MOCLDY    24  16  71 SW13G22   29.96R
SHEBOYGAN      MOCLDY    23  14  68 W16       29.98R WCI  10
$$

LMZ563-521-522-541>543-072300-
LAKESHORE

STATION/POSITION TIME  TEMP    WIND        PRES    VSBY  WAVE
                       AIR SEA DIR/SP/G                  HT/PER
                 (UTC) (F)     (DEG/KT/KT) (MB)    (MI)  (FT/S)
SHEBOYGAN LKSHOR 2200   24     250/ 16/ 22 1016.2R
KEWAUNEE LKSHORE 2148   26     270/ 13/ 20 1012.9R
ALGOMA MARINA    2151          270/ 15/ 24   N/A
NORTHPORT PIER   2147   27     270/  8/ 19 1011.5R
SISTER BAY LKSHO 2138   29     290/ 24/ 28   N/A
CHAMBERS ISLAND  2140   26     230/ 12/ 22 1011.5R
MENOMINEE LKSHOR 2148   26     240/ 12/ 20 1011.4R
$$




USA.gov is the U.S. government's official web portal to all federal, state and local government web resources and services.